sat.trackr.live / text

‹ back to catalog

STARLINK-31530

NORAD 59322 · 2024-057C

PAYLOAD ACTIVE UNKNOWN

§ Identity

Operator
Country
US
Launch date
2024-03-25
Launch site
AFETR
Launch vehicle
Mass (kg)
RCS (m²)

Purposes: comms

External: N2YO · Heavens-Above · Gunter

§ Orbital elements

Epoch: 2026-09-19T23:03:39.696768Z

Period
89.31 min
Inclination
42.9738°
Eccentricity
0.0023106
Mean motion
16.12284920 rev/d
Perigee alt
225.3 km
Apogee alt
255.9 km
Semi-major
6,618.7 km
B*
5.7046e-3
RAAN
99.2125°
Arg perigee
279.6888°
Mean anomaly
80.1385°
Rev number
14,035

§ Raw data

STARLINK-315301 59322U 24057C   26262.96087612  .04580271  64385-1  57046-2 0  99942 59322  42.9738  99.2125 0023106 279.6888  80.1385 16.12284920140357

JSON: /api/v1/satellites/59322 · /tle

For live sub-satellite position, see the globe view (requires WebGL).

§ Visibility from observer

Set your observer location to see the next 7 days of passes ≥ 10°. The values pass through the URL so the page stays shareable.

No JS? Fill the form by hand. The geolocation button needs JavaScript.